This is the latest recevied weather packets stored in our database for station/object SP6PWT-13. If no packets are shown the sender has not sent any weather packets the latest 10 day(s).
| Time | Temp. | Humidity | Pressure | Rain* | Wind** | Luminosity | Snow |
|---|---|---|---|---|---|---|---|
| 1777571773 | 13.89° C | 40% | 1011.9 hPa | 0 mm | - | 7 W/m² | - |
| 1777571473 | 14.44° C | 40% | 1011.8 hPa | 0 mm | - | 9 W/m² | - |
| 1777571172 | 14.44° C | 40% | 1011.8 hPa | 0 mm | - | 13 W/m² | - |
| 1777570871 | 14.44° C | 40% | 1011.7 hPa | 0 mm | - | 16 W/m² | - |
| 1777570571 | 14.44° C | 39% | 1011.6 hPa | 0 mm | - | 19 W/m² | - |
| 1777570270 | 15° C | 39% | 1011.6 hPa | 0 mm | - | 23 W/m² | - |
| 1777569970 | 15° C | 38% | 1011.7 hPa | 0 mm | - | 26 W/m² | - |
| 1777569670 | 15° C | 38% | 1011.8 hPa | 0 mm | - | 30 W/m² | - |
| 1777569369 | 15° C | 38% | 1011.9 hPa | 0 mm | - | 35 W/m² | - |
| 1777569069 | 15° C | 38% | 1011.7 hPa | 0 mm | - | 41 W/m² | - |
| 1777568769 | 15° C | 38% | 1011.9 hPa | 0 mm | - | 45 W/m² | - |
| 1777568468 | 15° C | 38% | 1012 hPa | 0 mm | - | 39 W/m² | - |
| 1777568167 | 14.44° C | 38% | 1011.9 hPa | 0 mm | - | 57 W/m² | - |
| 1777567867 | 15° C | 38% | 1012 hPa | 0 mm | - | 64 W/m² | - |
| 1777567567 | 15° C | 38% | 1011.9 hPa | 0 mm | - | 70 W/m² | - |
| 1777567266 | 15° C | 38% | 1012.1 hPa | 0 mm | - | 78 W/m² | - |
| 1777566966 | 15° C | 38% | 1011.9 hPa | 0 mm | - | 85 W/m² | - |
| 1777566666 | 15° C | 38% | 1012 hPa | 0 mm | - | 93 W/m² | - |
| 1777566365 | 15° C | 38% | 1011.9 hPa | 0 mm | - | 102 W/m² | - |
| 1777566064 | 14.44° C | 39% | 1012.1 hPa | 0 mm | - | 110 W/m² | - |
| 1777565763 | 15° C | 38% | 1012.1 hPa | 0 mm | - | 121 W/m² | - |
| 1777565463 | 15° C | 39% | 1012 hPa | 0 mm | - | 131 W/m² | - |
| 1777565162 | 15° C | 39% | 1011.9 hPa | 0 mm | - | 143 W/m² | - |
| 1777564862 | 15° C | 38% | 1012.1 hPa | 0 mm | - | 151 W/m² | - |
| 1777564562 | 15° C | 38% | 1012 hPa | 0 mm | - | 161 W/m² | - |
* Rain latest hour (hover to see other rain measurements)
** Current wind speed in m/s (hover to see current wind gust speed)